NOAA 16 DEB, 42415

Orbit data source: Space-Track

NOAA 16 DEB, 42415 is space debris in SSO originally from a launch on Thu, 21 Sep 2000 UTC launched from the Air Force Western Test Range (AFWTR). Debris objects in space refer to the collection of defunct objects orbiting the Earth. Examples of debris include non-operational satellites, rocket bodies, and fragments generated from explosions, collisions, or faulty payload assembly.

Loading next visibility...
Identifier
42415, 2000-055TK
Orbit
SSO
Country
Flag of USUS
Related business
Manufacturer
Unknown
Mission
Spacecraft
Bus & Motor
Unknown
Mass
Unknown
Launch date (UTC)
2000-09-21 (26 years ago)
Launch vehicle
Unknown
Launch site
Air Force Western Test Range (AFWTR)
Object type
Payload
Rocket body
Debris
Shape & HBR
Unknown shape, 0.1 m
Radar Cross Section
Medium (>0.1 m² and <1 m²)

Expand to show TLE details & history
Last TLE update: 1 day ago

TLE from 1 day ago
0 NOAA 16 DEB
1 42415U 00055TK  26264.37395638  .00003019  00000-0  84843-3 0  9993
2 42415  99.0222 101.0300 0020452 212.3101 147.6838 14.46589491548285
Epoch: 2026-09-21T08:58Z
TLE epoch observation values (Epoch: 2026-09-21T08:58:29.831Z)
Latitude
0.00002°
Longitude
-33.84901°
Altitude
752.059 km
Speed
7.472 km/s
True Right ascension
06h 44m 07s
True Declination
0° 00' 00"
Sunlit
Object was in daylight at epoch
Visualization orbit readout
Latitude
Unknown
Longitude
Unknown
Altitude
Unknown
Speed
Unknown
Apparent Right ascension
Unknown
Apparent Declination
Unknown
Sunlit
N/A
Visualization observer readout
Local Sidereal Time
02:35:54
Azimuth
Unknown
Elevation
Unknown
Doppler factor
Unknown
Orbital elements
Apogee altitude
748.494 km
Perigee altitude
719.402 km
Semi-major axis
7,112.085 km
Eccentricity
0.00205
Inclination
99.0222°
RAAN
101.03°
Arg. of periapsis
212.3101°
True anomaly
147.80882°
Mean anomaly
147.6838°
Eccentric anomaly
147.74634°
Mean motion
3.61866 °/min
Orbital period
99.48 mins
BSTAR
0.00084843
Loading maneuver chart data...
Computing Atmospheric mass density...
Loading historical data...
Loading historical data...
Loading historical data...
Loading historical data...
Loading historical data...
Loading historical data...
Loading historical data...

Documentation

Showing up to 5 results
|